Showing default

LOGSATS, 62689

Orbit data source: Space-Track

LOGSATS, 62689 is a payload satellite owned by Patriot Info (TH) in SSO that was launched on Tue, 14 Jan 2025 UTC via an FALCON 9 launch vehicle from the Air Force Western Test Range (AFWTR). Payload-class satellites include a variety of spacecraft equipped with specific instruments for various scientific and technological missions. These include communications satellites like Starlink; space stations such as the ISS; scientific satellites like the Hubble; Earth observation satellites from companies like Planet Labs, Umbra, and HawkEye 360; GPS; miniature CubeSats for education and research; and military/defense satellites.

Loading next visibility...
Identifier
62689, 2025-009CJ
Orbit
SSO
Country
Flag of UnknownUnknown / THAI
Related business
None
Manufacturer
Patriot Info
Mission
Operational Commercial Communications
Bus & Motor
CUBESAT 3U, Unknown motor
Mass
5 kg wet, 5 kg dry
Launch date (UTC)
2025-01-14 (9 months ago)
Launch vehicle
FALCON 9
Launch site
Air Force Western Test Range (AFWTR)
Object type
Payload
Rocket body
Debris
Shape & HBR
Box + 2 Pan, 0.2 m
Radar Cross Section
0.035 m², Small (<0.1 m²)

Expand to show TLE details & history
Last TLE update: 19 hours ago

TLE from 19 hours ago
0 LOGSATS
1 62689U 25009CJ  25300.45493310  .00061002  00000-0  15886-2 0  9995
2 62689  97.4148  21.5092 0003908  44.1407 316.0150 15.38657667 43541
Epoch: 2025-10-27T10:55Z
TLE epoch observation values (Epoch: 2025-10-27T10:55:06.219Z)
Latitude
Longitude
-178.32325°
Altitude
451.273 km
Speed
7.643 km/s
True Right ascension
01h 26m 02s
True Declination
0° 00' 00"
Sunlit
Object was in full shadow at epoch
Visualization orbit readout
Latitude
Unknown
Longitude
Unknown
Altitude
Unknown
Speed
Unknown
Apparent Right ascension
Unknown
Apparent Declination
Unknown
Sunlit
N/A
Visualization observer readout
Local Sidereal Time
01:20:20
Azimuth
Unknown
Elevation
Unknown
Doppler factor
Unknown
Orbital elements
Apogee altitude
449.686 km
Perigee altitude
444.352 km
Semi-major axis
6,825.156 km
Eccentricity
0.00039
Inclination
97.4148°
RAAN
21.5092°
Arg. of periapsis
44.1407°
True anomaly
315.98389°
Mean anomaly
316.015°
Eccentric anomaly
315.99945°
Mean motion
3.84923 °/min
Orbital period
93.53 mins
BSTAR
0.0015886
Loading maneuver chart data...
Computing Atmospheric mass density...
Loading historical data...
Loading historical data...
Loading historical data...
Loading historical data...
Loading historical data...
Loading historical data...
Loading historical data...

Documentation

Showing up to 5 results
|